STARLINK-11160, 60125

Orbit data source: Space-Track

STARLINK-11160, 60125 is a payload satellite owned by SpaceX/Seattle (US) in LEO that was launched on Mon, 24 Jun 2024 UTC via an FALCON 9 launch vehicle from the Air Force Western Test Range (AFWTR). Payload-class satellites include a variety of spacecraft equipped with specific instruments for various scientific and technological missions. These include communications satellites like Starlink; space stations such as the ISS; scientific satellites like the Hubble; Earth observation satellites from companies like Planet Labs, Umbra, and HawkEye 360; GPS; miniature CubeSats for education and research; and military/defense satellites.

Loading next visibility...
Identifier
60125, 2024-118N
Orbit
LEO
Last TLE update
14 hours ago
Origin
Manufacturer
SpaceX/Seattle
Mission
Operational Commercial Communications
Bus & Motor
STARLINK V2M, Unknown motor
Mass
730 kg wet, ~700 kg dry
Launch date (UTC)
2024-06-24 (1 year ago)
Launch vehicle
FALCON 9
Launch site
Air Force Western Test Range (AFWTR)
Object type
Payload
Rocket body
Debris
Shape & HBR
Box + 2 Pan, 29 m
Radar Cross Section
33.884 m², Large (>1 m²)

Expand to show TLE details & history

TLE from 14 hours ago
0 STARLINK-11160
1 60125U 24118N   25181.86760436 -.00001005  00000-0 -34398-5 0  9997
2 60125  53.1592  22.5152 0000861  58.6114 301.4988 15.69710362 59555
Epoch: 2025-06-30T20:49Z
TLE epoch observation values (Epoch: 2025-06-30T20:49:21.016Z)
Latitude
-0.00004°
Longitude
151.00636°
Altitude
360.338 km
Speed
7.694 km/s
True Right ascension
01h 30m 03s
True Declination
0° 00' 00"
Sunlit
Object was in daylight at epoch
Visualization orbit readout
Latitude
-5.91377°
Longitude
143.76125°
Altitude
361.379 km
Speed
7.693 km/s
Apparent Right ascension
04h 08m 51s
Apparent Declination
-46° 25' 49"
Sunlit
Object is in daylight
Visualization observer readout
Local Sidereal Time
22:11:05
Azimuth
129.096° SE
Elevation
-27.371°
Doppler factor
1
Orbital elements
Apogee altitude
360.567 km
Perigee altitude
359.406 km
Semi-major axis
6,738.124 km
Eccentricity
0.00009
Inclination
53.1592°
RAAN
22.5152°
Arg. of periapsis
58.6114°
True anomaly
Unknown
Mean anomaly
301.4988°
Eccentric anomaly
Unknown
Mean motion
3.92405 °/min
Orbital period
91.74 mins
BSTAR
-0.0000034398
Loading maneuver chart data...
Loading SW <> Apogee altitude chart data...
Loading historical data...
Loading historical data...
Loading historical data...
Loading historical data...
Loading historical data...
Loading historical data...
Loading historical data...

STARLINK-11160 Visibility forecast

Observer location: undefined°, undefined°

Span
Click to sort rows by Start time (UTC) header in descending order
Start Az.
Max El. time (UTC)
Max El. Az.
Max El.
End time (UTC)
End Az.
4 mins2025-07-01 15:19:37.839Z177.916° S2025-07-01 15:21:37.839Z123.084° SE21.158°2025-07-01 15:23:37.839Z78.369° E
4 mins2025-07-01 23:19:37.839Z284.669° WNW2025-07-01 23:21:37.839Z202.649° SW31.141°2025-07-01 23:23:37.839Z156.734° SSE
|